User: anonymous   Login
Location: Gouvernes
(48.8601°N, 2.6907°E)
Time: 16:01:54
(UTC+00:00)
Language:

SJ-6B - Orbit

View from above orbital plane
View from above orbital plane
View from above satellite
View from above satellite

Ground track
Ground track

The orbit data is extracted from the following two-line orbital elements,

1 28415U 04035C   22021.84961090  .00001213  00000-0  81931-4 0  9999
2 28415  97.5382  65.3787 0051470 159.6582 200.6712 15.07428099951508
Epoch (UTC): 21 January 2022 20:23:26
Eccentricity: 0.0051470
inclination: 97.5382°
perigee height: 508 km
apogee height: 579 km
right ascension of ascending node: 65.3787°
argument of perigee: 159.6582°
revolutions per day: 15.07428099
mean anomaly at epoch: 200.6712°
orbit number at epoch: 95150

The dashed part of the orbit path shows where the satellite is in the earth's shadow,  

DLR